SCP
0 0 0 0 0 0 0 0 0 0 0 0 0 0 0 0 0 0 0 -0 -0 0 0 0 0 0 0 0 0 0 0 0 0 0 0 0 0 0 0 0 0 0 0 0
0 0 0 0 0 0 0 0 0 0 0 0 0 0 0 0 0 0 -0 0 0 0 0 0 0 0 0 0 0 0 0 0 0 0 0 0 0 0 0 -0 -0 0 0 0
0 0 0 0 0 0 0 0 0 0 0 0 0 0 0 0 0 0 -0 0 0 0 0 0 0 0 0 0 0 0 0 0 0 0 0 0 0 0 -0 -0 -0 0 0 0
0 0 0 0 0 0 0 0 0 0 0 0 0 0 0 0 0 0 0 0 0 0 0 0 0 0 0 0 0 0 0 0 0 0 0 0 0 0 -0 -0 -0 0 0 0
0 0 0 0 0 0 0 0 0 0 0 0 0 0 0 0 0 0 0 0 0 0 0 0 0 0 0 0 0 0 -0 0 0 0 0 0 0 -0 -0 0 0 0 0 0
0 0 0 0 0 0 0 0 0 0 0 0 0 0 0 0 0 0 0 0 0 0 0 0 0 0 0 0 0 0 0 0 0 0 0 0 0 -0 0 0 0 0 0 0
-0 -0 -0 -0 0 0 0 0 0 0 0 0 0 0 0 0 0 0 0 0 0 0 0 0 0 0 -0 -0 0 0 0 0 0 0 0 0 0 0 0 0 0 0 0 0
-0 -0 -0 0 0 0 -0 0 -0 0 0 -0 0 0 0 0 0 0 0 0 0 0 0 0 0 0 -0 -0 0 0 0 0 0 0 -0 0 0 0 0 0 0 0 0 0
0 0 -0 -0 -0 0 0 -0 -0 0 -0 -0 -0 -0 0 0 0 0 0 0 0 0 0 0 0 0 0 0 0 0 0 -0 0 0 0 0 0 0 0 0 0 0 0 0
-0 0 -0 -0 -0 -0 -0 -0 0 0 0 0 -0 -0 0 0 0 -0 0 0 0 0 -0 -0 -0 -0 0 0 0 0 0 0 0 0 0 0 0 0 0 0 0 0 0 0
0 -0 0 -0 -0 -0 -0 0 0 -0 0 0 -0 0 0 0 -0 0 0 0 0 -0 -0 -0 -0 0 0 0 0 0 0 0 0 0 0 0 0 0 0 0 0 0 0 0
-0 -0 0 -0 -0 -0 -0 -0 -0 0 -0 0 -0 -0 -0 0 0 0 0 0 0 0 -0 -0 -0 0 0 0 0 0 0 0 0 0 0 0 0 0 -0 -0 -0 -0 -0 0
0 0 0 -0 -0 -0 -0 0 -0 -0 -0 -0 -0 -0 -0 0 0 0 0 0 0 0 0 0 0 0 0 0 0 0 0 0 0 0 0 0 0 0 -0 -0 -0 -0 -0 -0
0 -0 -0 -0 -0 0 0 -0 -0 0 0 -0 -0 -0 -0 0 0 0 0 0 0 0 0 0 0 0 0 0 0 0 0 0 0 0 0 0 0 0 0 0 0 0 0 0
-0 -0 -0 -0 -0 -0 -0 -0 -0 -0 -0 -0 -0 -0 0 0 0 0 0 0 0 0 0 0 0 0 0 0 0 0 0 0 0 0 0 0 0 0 0 0 0 0 0 0
-0 -0 -0 0 0 0 -0 -0 -0 -0 -0 -0 -0 0 0 0 0 0 0 0 0 0 0 0 0 0 0 0 0 0 0 0 0 0 0 0 0 0 0 0 0 0 0 0
-0 0 0 0 0 0 -0 0 -0 -0 0 0 0 0 0 0 0 0 0 0 0 0 0 0 0 0 0 0 0 0 0 0 0 0 0 0 0 0 0 0 0 0 0 0
-0 -0 -0 -0 0 -0 -0 -0 -0 0 0 0 0 0 0 0 0 0 0 0 0 0 0 0 0 0 0 0 0 0 0 0 0 0 0 0 0 0 0 0 0 0 0 0
0 0 -0 0 -0 0 -0 -0 0 0 0 0 0 0 0 0 0 0 0 0 0 0 0 0 0 0 0 0 0 0 0 0 0 0 0 0 0 0 0 0 0 0 0 0
-0 0 -0 -0 0 -0 -0 0 0 0 0 0 0 0 0 0 0 0 0 0 0 0 0 0 0 0 0 0 0 0 0 0 0 0 0 0 0 0 0 0 0 0 0 0
0 0 0 0 0 -0 0 0 0 0 0 0 0 0 0 0 0 0 0 0 0 0 0 0 0 0 0 0 0 0 0 0 0 0 0 0 0 0 0 0 0 0 0 0
0 0 -0 0 -0 -0 0 0 0 0 0 0 0 0 0 0 0 0 0 0 0 0 0 0 0 0 0 0 0 0 0 0 0 0 0 0 0 0 0 0 -0 -0 -0 0
0 -0 -0 0 -0 -0 0 0 0 0 0 0 0 0 0 0 0 0 0 0 0 0 0 0 0 0 0 0 0 0 0 0 0 0 0 0 0 -0 -0 -0 -0 -0 -0 -0
-0 -0 -0 0 -0 -0 0 0 0 0 0 0 0 0 0 0 0 0 0 0 0 0 0 0 0 0 0 0 0 0 0 0 0 -0 -0 -0 -0 -0 -0 -0 -0 -0 -0 0
-0 -0 -0 0 -0 -0 0 0 0 0 0 0 0 0 0 0 0 0 0 0 0 0 0 0 0 0 0 0 0 0 -0 -0 0 0 -0 -0 -0 -0 -0 0 0 0 0 -0
0 0 0 0 -0 0 0 0 0 0 0 0 0 0 0 0 0 0 0 0 0 0 0 0 0 0 0 0 0 0 -0 -0 -0 -0 -0 0 0 0 0 0 0 0 0 0
0 0 0 0 -0 0 0 0 0 0 0 0 0 0 0 0 0 0 0 0 0 0 0 0 0 0 0 0 -0 -0 -0 0 0 0 0 -0 0 -0 0 0 0 0 0 0
Wind_Speed_500mb
33 35 35 38 37 30 30 38 32 53 46 29 6 8 9 27 42 50 60 66 56 60 59 51 59 70 78 90 79 61 55 53 54 55 52 39 38 42 52 54 44 33 39 35
41 36 34 42 41 39 38 40 44 43 33 13 24 23 20 30 46 63 65 59 51 53 64 66 68 71 84 74 66 56 56 55 49 51 47 37 32 45 56 56 46 41 33 31
42 20 26 30 20 28 32 32 14 9 8 18 16 24 33 45 63 59 60 51 62 63 65 68 79 81 73 65 60 54 53 56 50 47 43 40 33 44 50 52 43 34 33 31
27 12 33 17 16 20 13 11 14 16 13 11 20 44 53 63 65 54 58 73 86 70 69 83 76 68 70 62 60 63 56 56 64 48 42 44 30 34 45 43 41 40 36 31
14 21 21 23 18 6 2 13 12 7 14 27 47 41 52 46 49 62 71 85 66 82 78 82 76 73 68 59 67 72 62 60 56 36 35 41 24 32 30 41 41 43 37 28
12 11 6 9 31 23 8 10 10 5 13 20 26 24 31 58 65 73 70 62 75 82 88 76 65 67 76 66 55 61 60 55 41 37 30 37 23 27 37 40 42 41 35 32
7 12 11 26 22 9 6 12 40 36 28 25 18 30 68 74 76 65 68 80 84 76 68 76 71 65 59 56 56 55 55 41 30 24 21 28 24 37 34 37 39 42 43 44
10 6 10 36 44 9 20 38 44 31 28 45 52 52 65 69 65 70 81 83 74 74 68 61 56 51 52 50 49 41 32 34 18 22 21 24 35 34 38 43 46 51 58 56
7 11 49 60 45 62 70 56 31 40 51 48 47 63 65 66 66 83 78 81 70 68 67 58 48 40 40 36 26 26 29 19 25 24 22 28 35 45 55 52 54 65 65 66
26 11 32 47 62 58 75 60 37 47 36 54 56 59 62 69 76 77 77 68 67 62 63 65 52 32 23 23 22 24 17 23 30 37 44 48 49 53 57 62 69 75 72 69
27 27 57 37 44 66 57 43 49 49 49 52 50 57 67 65 68 69 63 62 57 60 56 51 31 22 17 26 33 24 58 57 57 55 59 60 60 62 66 66 66 72 72 71
20 47 31 62 67 48 39 37 34 42 52 42 53 57 53 56 57 51 54 51 53 44 42 55 49 47 43 38 54 72 70 63 62 64 61 62 65 66 60 65 69 75 80 90
21 51 52 43 50 35 34 29 39 44 42 47 42 43 46 44 41 41 41 41 39 37 43 54 60 61 53 59 56 53 55 66 64 59 68 69 69 73 79 73 75 82 101 107
35 49 45 47 43 30 35 40 41 39 36 37 38 37 33 32 30 36 35 31 34 38 41 50 55 56 53 54 56 63 66 66 70 76 75 74 75 82 95 105 115 105 93 93
47 49 48 43 47 42 37 38 39 38 39 39 32 27 23 23 31 29 26 24 37 45 39 44 52 53 50 57 64 68 71 74 78 80 82 91 102 111 123 122 117 109 98 86
57 43 42 35 37 38 36 38 38 35 37 31 27 22 18 22 25 28 31 31 42 50 52 48 53 51 54 61 70 76 78 81 86 95 105 114 123 128 122 117 107 96 90 87
47 41 39 40 39 37 35 33 30 30 32 28 25 20 25 27 32 36 39 41 45 48 47 52 58 54 58 61 73 86 89 94 99 109 119 123 122 119 117 108 101 93 79 70
29 28 33 34 34 33 32 30 31 36 32 36 35 31 35 36 42 39 47 45 52 57 54 53 56 62 70 78 86 90 96 104 112 120 124 123 117 112 110 99 86 81 75 70
24 31 31 32 30 28 27 28 32 33 40 49 40 43 44 41 45 47 50 58 63 69 67 67 66 67 71 78 86 93 100 109 116 124 122 117 112 99 90 85 81 78 74 73
22 32 27 27 29 26 27 30 32 43 46 49 42 54 56 51 52 55 58 69 70 84 95 93 85 78 79 90 103 114 117 112 106 93 92 89 79 73 75 82 80 76 73 69
26 25 25 31 24 26 32 34 30 46 49 53 53 45 69 73 68 70 79 94 85 80 75 81 93 92 86 80 83 89 86 88 97 93 82 76 78 76 73 71 69 66 62 57
22 21 25 28 28 28 29 34 47 50 55 65 69 56 57 71 84 93 97 95 84 80 72 69 74 77 80 84 87 89 80 77 72 73 74 73 70 68 64 62 60 58 58 56
19 22 27 26 36 35 46 42 49 53 60 61 67 65 52 38 42 48 49 44 50 62 74 69 66 67 72 81 85 75 69 68 71 67 67 65 65 65 62 60 57 56 56 54
26 33 30 31 34 29 32 43 42 42 40 52 54 56 62 67 66 61 61 67 67 61 67 74 74 69 63 62 63 65 65 65 63 62 63 60 60 60 58 59 58 54 51 50
21 16 14 31 27 37 40 47 39 43 51 58 61 63 68 65 62 60 61 62 65 64 59 54 53 54 59 63 61 59 59 60 59 56 53 53 55 57 58 55 53 48 50 52
23 28 28 29 40 43 38 45 37 46 49 56 59 59 57 59 56 49 49 50 53 54 52 49 51 55 55 56 56 54 52 51 53 54 53 53 53 52 47 47 49 48 46 43
31 33 29 27 35 36 36 41 38 44 50 56 60 57 52 47 47 47 50 54 55 50 48 46 46 47 48 50 51 52 53 49 47 47 49 45 43 49 48 47 42 38 36 43
Wind_Direction_500mb
238 251 253 262 275 279 276 270 259 278 275 281 136 352 337 13 352 341 326 317 311 309 308 296 302 301 295 308 309 305 301 298 292 299 261 271 264 269 261 266 265 293 271 253
262 255 269 274 271 275 274 280 276 283 284 17 16 36 17 357 341 327 317 311 311 310 310 306 297 295 297 300 299 298 294 295 294 298 268 257 254 257 261 266 268 304 271 250
276 280 285 276 250 255 264 288 274 272 326 27 359 342 334 337 322 308 304 306 310 308 305 295 299 299 298 296 294 296 289 292 287 291 270 249 243 261 262 266 273 280 255 248
266 292 262 247 246 280 276 277 305 331 21 351 326 318 313 319 305 303 301 307 308 301 299 298 296 292 298 296 283 294 283 275 279 278 264 243 253 257 262 271 265 254 237 230
244 225 253 316 314 4 131 301 38 12 333 323 317 316 299 309 312 302 298 305 293 299 297 298 295 295 293 279 274 285 274 272 277 265 253 243 252 249 256 253 261 230 222 205
301 314 256 353 7 13 81 285 22 319 275 294 321 304 304 315 309 306 307 298 300 299 299 294 288 284 284 283 277 272 268 273 267 252 240 231 258 240 239 249 237 204 187 171
242 241 226 241 339 343 62 265 325 315 305 309 294 288 300 309 309 309 306 306 306 304 295 291 293 291 280 277 267 263 266 257 256 226 229 227 223 223 226 221 176 161 157 150
322 308 270 341 338 6 277 310 311 304 301 302 298 302 309 311 310 311 311 316 312 308 304 299 295 287 280 266 263 260 249 237 223 200 211 219 202 203 195 181 167 152 149 142
255 266 300 299 294 307 317 323 314 315 320 315 312 316 315 313 314 318 321 320 322 320 315 309 300 285 273 259 245 227 223 209 179 179 185 192 192 175 162 168 159 148 147 140
308 287 303 324 320 325 333 324 323 324 319 322 321 318 316 314 323 324 325 327 329 327 324 316 308 290 250 219 201 186 153 162 176 169 167 165 164 166 166 161 156 154 149 139
295 305 316 305 324 329 314 322 326 326 332 328 321 319 317 326 324 325 332 337 342 342 331 331 288 236 197 172 157 153 151 159 158 161 160 154 152 153 156 154 161 157 144 136
308 310 317 311 320 322 321 335 334 330 329 328 322 322 330 327 328 337 341 354 356 358 23 50 101 117 128 141 150 150 145 136 142 149 150 153 152 141 140 151 154 144 137 134
332 339 330 324 326 319 343 344 332 335 326 331 335 332 333 334 343 351 4 8 10 32 62 86 108 116 129 144 153 156 152 148 144 148 148 146 144 143 132 127 128 125 127 124
338 334 325 332 348 355 337 336 339 334 348 347 337 334 346 349 3 15 15 25 40 56 78 96 107 113 129 141 144 141 144 146 144 138 139 138 134 131 130 127 122 119 119 121
342 332 326 333 338 339 348 343 351 357 356 350 354 3 0 11 28 22 46 51 73 78 80 93 102 110 126 136 137 138 138 135 134 132 132 131 129 129 126 125 124 126 128 126
338 342 345 347 342 348 353 356 1 4 359 10 13 26 39 46 55 62 64 80 83 85 91 100 107 117 127 133 132 131 131 133 134 132 129 127 127 127 126 125 125 127 126 123
341 343 350 350 350 354 1 9 17 17 24 29 45 62 73 70 77 74 80 88 95 94 94 103 107 121 127 132 132 130 131 130 131 129 128 128 127 128 128 127 127 121 114 115
344 349 348 354 357 2 17 25 39 39 39 55 56 78 81 79 83 81 89 93 94 93 95 102 114 120 122 125 127 130 131 130 128 127 124 123 122 121 120 115 112 114 114 114
1 4 5 6 7 30 35 51 47 59 71 58 65 75 81 90 94 96 99 98 100 101 102 103 105 109 116 122 126 129 130 129 126 124 122 122 121 117 114 113 115 121 125 125
10 6 16 24 25 42 57 69 67 87 78 54 56 77 83 92 96 98 100 99 102 102 97 92 89 93 101 109 114 114 113 113 114 115 117 112 110 115 121 126 128 128 128 129
12 27 39 31 38 73 81 67 88 88 64 59 61 72 92 97 99 99 100 104 103 100 98 101 103 101 101 104 110 113 115 117 117 113 111 113 117 118 120 123 126 129 129 129
35 44 53 48 60 86 84 87 107 89 80 73 79 94 99 94 100 100 100 103 102 102 102 99 98 101 105 107 111 112 110 110 113 120 120 119 121 122 124 126 126 127 129 128
57 78 66 68 76 95 82 87 116 98 88 80 74 75 100 102 96 102 108 97 94 104 106 109 113 112 114 116 113 109 110 116 118 119 122 123 125 126 128 130 130 130 128 127
99 94 89 90 83 103 98 104 100 110 81 82 80 81 89 96 100 103 103 106 108 111 110 109 108 107 111 117 121 120 121 123 123 124 125 127 128 129 129 128 127 128 128 126
100 79 90 87 78 80 101 122 110 108 95 94 93 91 98 102 102 106 107 109 108 108 111 117 120 120 119 120 121 123 124 125 128 130 129 129 129 129 130 135 137 135 132 128
85 44 100 91 84 95 90 132 119 117 105 99 100 98 99 102 103 102 104 107 115 117 117 121 120 120 121 121 123 125 127 125 124 126 130 134 136 138 139 137 137 136 136 132
95 72 90 125 92 94 101 106 104 115 113 101 94 96 96 96 104 102 101 103 111 113 118 121 124 125 125 124 121 123 127 131 136 138 138 136 133 133 136 141 144 140 139 139
Wind_Speed_850mb
33 35 35 38 37 30 30 38 32 53 46 29 6 8 9 27 42 50 60 66 56 60 59 51 59 70 78 90 79 61 55 53 54 55 52 39 38 42 52 54 44 33 39 35
41 36 34 42 41 39 38 40 44 43 33 13 24 23 20 30 46 63 65 59 51 53 64 66 68 71 84 74 66 56 56 55 49 51 47 37 32 45 56 56 46 41 33 31
42 20 26 30 20 28 32 32 14 9 8 18 16 24 33 45 63 59 60 51 62 63 65 68 79 81 73 65 60 54 53 56 50 47 43 40 33 44 50 52 43 34 33 31
27 12 33 17 16 20 13 11 14 16 13 11 20 44 53 63 65 54 58 73 86 70 69 83 76 68 70 62 60 63 56 56 64 48 42 44 30 34 45 43 41 40 36 31
14 21 21 23 18 6 2 13 12 7 14 27 47 41 52 46 49 62 71 85 66 82 78 82 76 73 68 59 67 72 62 60 56 36 35 41 24 32 30 41 41 43 37 28
12 11 6 9 31 23 8 10 10 5 13 20 26 24 31 58 65 73 70 62 75 82 88 76 65 67 76 66 55 61 60 55 41 37 30 37 23 27 37 40 42 41 35 32
7 12 11 26 22 9 6 12 40 36 28 25 18 30 68 74 76 65 68 80 84 76 68 76 71 65 59 56 56 55 55 41 30 24 21 28 24 37 34 37 39 42 43 44
10 6 10 36 44 9 20 38 44 31 28 45 52 52 65 69 65 70 81 83 74 74 68 61 56 51 52 50 49 41 32 34 18 22 21 24 35 34 38 43 46 51 58 56
7 11 49 60 45 62 70 56 31 40 51 48 47 63 65 66 66 83 78 81 70 68 67 58 48 40 40 36 26 26 29 19 25 24 22 28 35 45 55 52 54 65 65 66
26 11 32 47 62 58 75 60 37 47 36 54 56 59 62 69 76 77 77 68 67 62 63 65 52 32 23 23 22 24 17 23 30 37 44 48 49 53 57 62 69 75 72 69
27 27 57 37 44 66 57 43 49 49 49 52 50 57 67 65 68 69 63 62 57 60 56 51 31 22 17 26 33 24 58 57 57 55 59 60 60 62 66 66 66 72 72 71
20 47 31 62 67 48 39 37 34 42 52 42 53 57 53 56 57 51 54 51 53 44 42 55 49 47 43 38 54 72 70 63 62 64 61 62 65 66 60 65 69 75 80 90
21 51 52 43 50 35 34 29 39 44 42 47 42 43 46 44 41 41 41 41 39 37 43 54 60 61 53 59 56 53 55 66 64 59 68 69 69 73 79 73 75 82 101 107
35 49 45 47 43 30 35 40 41 39 36 37 38 37 33 32 30 36 35 31 34 38 41 50 55 56 53 54 56 63 66 66 70 76 75 74 75 82 95 105 115 105 93 93
47 49 48 43 47 42 37 38 39 38 39 39 32 27 23 23 31 29 26 24 37 45 39 44 52 53 50 57 64 68 71 74 78 80 82 91 102 111 123 122 117 109 98 86
57 43 42 35 37 38 36 38 38 35 37 31 27 22 18 22 25 28 31 31 42 50 52 48 53 51 54 61 70 76 78 81 86 95 105 114 123 128 122 117 107 96 90 87
47 41 39 40 39 37 35 33 30 30 32 28 25 20 25 27 32 36 39 41 45 48 47 52 58 54 58 61 73 86 89 94 99 109 119 123 122 119 117 108 101 93 79 70
29 28 33 34 34 33 32 30 31 36 32 36 35 31 35 36 42 39 47 45 52 57 54 53 56 62 70 78 86 90 96 104 112 120 124 123 117 112 110 99 86 81 75 70
24 31 31 32 30 28 27 28 32 33 40 49 40 43 44 41 45 47 50 58 63 69 67 67 66 67 71 78 86 93 100 109 116 124 122 117 112 99 90 85 81 78 74 73
22 32 27 27 29 26 27 30 32 43 46 49 42 54 56 51 52 55 58 69 70 84 95 93 85 78 79 90 103 114 117 112 106 93 92 89 79 73 75 82 80 76 73 69
26 25 25 31 24 26 32 34 30 46 49 53 53 45 69 73 68 70 79 94 85 80 75 81 93 92 86 80 83 89 86 88 97 93 82 76 78 76 73 71 69 66 62 57
22 21 25 28 28 28 29 34 47 50 55 65 69 56 57 71 84 93 97 95 84 80 72 69 74 77 80 84 87 89 80 77 72 73 74 73 70 68 64 62 60 58 58 56
19 22 27 26 36 35 46 42 49 53 60 61 67 65 52 38 42 48 49 44 50 62 74 69 66 67 72 81 85 75 69 68 71 67 67 65 65 65 62 60 57 56 56 54
26 33 30 31 34 29 32 43 42 42 40 52 54 56 62 67 66 61 61 67 67 61 67 74 74 69 63 62 63 65 65 65 63 62 63 60 60 60 58 59 58 54 51 50
21 16 14 31 27 37 40 47 39 43 51 58 61 63 68 65 62 60 61 62 65 64 59 54 53 54 59 63 61 59 59 60 59 56 53 53 55 57 58 55 53 48 50 52
23 28 28 29 40 43 38 45 37 46 49 56 59 59 57 59 56 49 49 50 53 54 52 49 51 55 55 56 56 54 52 51 53 54 53 53 53 52 47 47 49 48 46 43
31 33 29 27 35 36 36 41 38 44 50 56 60 57 52 47 47 47 50 54 55 50 48 46 46 47 48 50 51 52 53 49 47 47 49 45 43 49 48 47 42 38 36 43
Wind_Direction_850mb
238 251 253 262 275 279 276 270 259 278 275 281 136 352 337 13 352 341 326 317 311 309 308 296 302 301 295 308 309 305 301 298 292 299 261 271 264 269 261 266 265 293 271 253
262 255 269 274 271 275 274 280 276 283 284 17 16 36 17 357 341 327 317 311 311 310 310 306 297 295 297 300 299 298 294 295 294 298 268 257 254 257 261 266 268 304 271 250
276 280 285 276 250 255 264 288 274 272 326 27 359 342 334 337 322 308 304 306 310 308 305 295 299 299 298 296 294 296 289 292 287 291 270 249 243 261 262 266 273 280 255 248
266 292 262 247 246 280 276 277 305 331 21 351 326 318 313 319 305 303 301 307 308 301 299 298 296 292 298 296 283 294 283 275 279 278 264 243 253 257 262 271 265 254 237 230
244 225 253 316 314 4 131 301 38 12 333 323 317 316 299 309 312 302 298 305 293 299 297 298 295 295 293 279 274 285 274 272 277 265 253 243 252 249 256 253 261 230 222 205
301 314 256 353 7 13 81 285 22 319 275 294 321 304 304 315 309 306 307 298 300 299 299 294 288 284 284 283 277 272 268 273 267 252 240 231 258 240 239 249 237 204 187 171
242 241 226 241 339 343 62 265 325 315 305 309 294 288 300 309 309 309 306 306 306 304 295 291 293 291 280 277 267 263 266 257 256 226 229 227 223 223 226 221 176 161 157 150
322 308 270 341 338 6 277 310 311 304 301 302 298 302 309 311 310 311 311 316 312 308 304 299 295 287 280 266 263 260 249 237 223 200 211 219 202 203 195 181 167 152 149 142
255 266 300 299 294 307 317 323 314 315 320 315 312 316 315 313 314 318 321 320 322 320 315 309 300 285 273 259 245 227 223 209 179 179 185 192 192 175 162 168 159 148 147 140
308 287 303 324 320 325 333 324 323 324 319 322 321 318 316 314 323 324 325 327 329 327 324 316 308 290 250 219 201 186 153 162 176 169 167 165 164 166 166 161 156 154 149 139
295 305 316 305 324 329 314 322 326 326 332 328 321 319 317 326 324 325 332 337 342 342 331 331 288 236 197 172 157 153 151 159 158 161 160 154 152 153 156 154 161 157 144 136
308 310 317 311 320 322 321 335 334 330 329 328 322 322 330 327 328 337 341 354 356 358 23 50 101 117 128 141 150 150 145 136 142 149 150 153 152 141 140 151 154 144 137 134
332 339 330 324 326 319 343 344 332 335 326 331 335 332 333 334 343 351 4 8 10 32 62 86 108 116 129 144 153 156 152 148 144 148 148 146 144 143 132 127 128 125 127 124
338 334 325 332 348 355 337 336 339 334 348 347 337 334 346 349 3 15 15 25 40 56 78 96 107 113 129 141 144 141 144 146 144 138 139 138 134 131 130 127 122 119 119 121
342 332 326 333 338 339 348 343 351 357 356 350 354 3 0 11 28 22 46 51 73 78 80 93 102 110 126 136 137 138 138 135 134 132 132 131 129 129 126 125 124 126 128 126
338 342 345 347 342 348 353 356 1 4 359 10 13 26 39 46 55 62 64 80 83 85 91 100 107 117 127 133 132 131 131 133 134 132 129 127 127 127 126 125 125 127 126 123
341 343 350 350 350 354 1 9 17 17 24 29 45 62 73 70 77 74 80 88 95 94 94 103 107 121 127 132 132 130 131 130 131 129 128 128 127 128 128 127 127 121 114 115
344 349 348 354 357 2 17 25 39 39 39 55 56 78 81 79 83 81 89 93 94 93 95 102 114 120 122 125 127 130 131 130 128 127 124 123 122 121 120 115 112 114 114 114
1 4 5 6 7 30 35 51 47 59 71 58 65 75 81 90 94 96 99 98 100 101 102 103 105 109 116 122 126 129 130 129 126 124 122 122 121 117 114 113 115 121 125 125
10 6 16 24 25 42 57 69 67 87 78 54 56 77 83 92 96 98 100 99 102 102 97 92 89 93 101 109 114 114 113 113 114 115 117 112 110 115 121 126 128 128 128 129
12 27 39 31 38 73 81 67 88 88 64 59 61 72 92 97 99 99 100 104 103 100 98 101 103 101 101 104 110 113 115 117 117 113 111 113 117 118 120 123 126 129 129 129
35 44 53 48 60 86 84 87 107 89 80 73 79 94 99 94 100 100 100 103 102 102 102 99 98 101 105 107 111 112 110 110 113 120 120 119 121 122 124 126 126 127 129 128
57 78 66 68 76 95 82 87 116 98 88 80 74 75 100 102 96 102 108 97 94 104 106 109 113 112 114 116 113 109 110 116 118 119 122 123 125 126 128 130 130 130 128 127
99 94 89 90 83 103 98 104 100 110 81 82 80 81 89 96 100 103 103 106 108 111 110 109 108 107 111 117 121 120 121 123 123 124 125 127 128 129 129 128 127 128 128 126
100 79 90 87 78 80 101 122 110 108 95 94 93 91 98 102 102 106 107 109 108 108 111 117 120 120 119 120 121 123 124 125 128 130 129 129 129 129 130 135 137 135 132 128
85 44 100 91 84 95 90 132 119 117 105 99 100 98 99 102 103 102 104 107 115 117 117 121 120 120 121 121 123 125 127 125 124 126 130 134 136 138 139 137 137 136 136 132
95 72 90 125 92 94 101 106 104 115 113 101 94 96 96 96 104 102 101 103 111 113 118 121 124 125 125 124 121 123 127 131 136 138 138 136 133 133 136 141 144 140 139 139